Francistown, Botswana

12:48 AM CAT on March 23, 2017 (GMT +0200)
Francistown

Weather History for FBFT - December, 2012

Change the Weather History Date:

Sunday, December 2, 2012

  Actual Average Record
Temperature  
Mean Temperature 73 °F -  
Max Temperature 80 °F 85 °F 102 °F (2016)
Min Temperature 66 °F 65 °F 60 °F (2000)
Cooling Degree Days 8    
Growing Degree Days 23 (Base 50)    
Moisture  
Dew Point 59 °F    
Average Humidity 59    
Maximum Humidity 73    
Minimum Humidity 45    
Precipitation  
Precipitation 0.00 in - - ()
Sea Level Pressure  
Sea Level Pressure 30.09 in    
Wind  
Wind Speed 11 mph ()    
Max Wind Speed 18 mph    
Max Gust Speed -    
Visibility 6.1 miles    
Events      
Averages and records for this station are not official NWS values.
T = Trace of Precipitation, MM = Missing Value Source: Averaged Metar Reports

Daily Weather History Graph

Daily Weather History Graph

Search for Another Location

Airport or City:

Trip Planner

Search our weather history database for the weather conditions in past years. The results will help you decide how hot, cold, wet, or windy it might be!

Date:

Astronomy

Dec. 02, 2012 Rise Set
Actual Time 5:19 AM CAT 6:39 PM CAT
Civil Twilight 4:54 AM CAT 7:04 PM CAT
Nautical Twilight 4:25 AM CAT 7:33 PM CAT
Astronomical Twilight 3:55 AM CAT 8:03 PM CAT
Moon 9:39 PM CAT (12/2) 8:19 AM CAT (12/2)
Length of Visible Light 14h 09m
Length of Day
13h 20m
Waning Gibbous, 87% of the Moon is Illuminated
Dec 2
Waning Gibbous
Dec 6
Last Quarter
Dec 13
New
Dec 20
First Quarter
Dec 28
Full

Hourly Weather History & Observations

Time (CAT) Temp. Heat Index Dew Point Humidity Pressure Visibility Wind Dir Wind Speed Gust Speed Precip Events Conditions
1:00 AM 73.4 °F - 59.0 °F 61% 30.09 in 6.2 mi East 11.5 mph - N/A   Mostly Cloudy
2:00 AM 73 °F - 59 °F 52%  in 6 mi East 16.1 mph - -   Overcast
2:00 AM 73.4 °F - 59.0 °F 61% 30.09 in - East 16.1 mph - N/A   Clear
3:00 AM 71.6 °F - 59.0 °F 64% 30.09 in - East 10.4 mph - N/A   Clear
4:00 AM 71.6 °F - 59.0 °F 64% 30.09 in - East 18.4 mph - N/A   Clear
5:00 AM 71.6 °F - 59.0 °F 64% 30.09 in 6.2 mi ENE 15.0 mph - N/A   Scattered Clouds
6:00 AM 69.8 °F - 59.0 °F 68% 30.12 in - East 11.5 mph - N/A   Clear
7:00 AM 69.8 °F - 59.0 °F 68% 30.12 in - East 11.5 mph - N/A   Clear
8:00 AM 70 °F - 60 °F 62%  in 6 mi East 16.1 mph - -   Overcast
8:00 AM 69.8 °F - 59.0 °F 68% 30.15 in - East 16.1 mph - N/A   Clear
9:00 AM 69.8 °F - 60.8 °F 73% 30.18 in - ENE 17.3 mph - N/A   Clear
10:00 AM 71.6 °F - 60.8 °F 69% 30.15 in 6.2 mi ENE 13.8 mph - N/A   Overcast
11:00 AM 73.4 °F - 60.8 °F 65% 30.15 in - ENE 12.7 mph - N/A   Clear
12:00 PM 77.0 °F - 59.0 °F 54% 30.12 in - ENE 13.8 mph - N/A   Clear
1:00 PM 77.0 °F - 59.0 °F 54% 30.12 in - ENE 11.5 mph - N/A   Clear
2:00 PM 77.0 °F - 59.0 °F 54% 30.06 in 6.2 mi ENE 9.2 mph - N/A   Mostly Cloudy
3:00 PM 78.8 °F - 59.0 °F 51% 30.04 in 6.2 mi East 8.1 mph - N/A   Mostly Cloudy
4:00 PM 80.6 °F 80.8 °F 57.2 °F 45% 30.04 in - East 11.5 mph - N/A   Clear
5:00 PM 80.6 °F 82.3 °F 64.4 °F 58% 30.04 in - East 9.2 mph - N/A   Clear
6:00 PM 77.0 °F - 55.4 °F 47% 30.04 in - East 9.2 mph - N/A   Clear
7:00 PM 77.0 °F - 57.2 °F 50% 30.04 in - ESE 8.1 mph - N/A   Clear
8:00 PM 75.2 °F - 57.2 °F 53% 30.04 in - ESE 6.9 mph - N/A   Clear
9:00 PM 78.8 °F - 59.0 °F 51% 30.04 in - East 4.6 mph - N/A   Clear
10:00 PM 75.2 °F - 53.6 °F 47% 30.06 in - ESE 3.5 mph - N/A   Clear
11:00 PM 71.6 °F - 59.0 °F 64% 30.06 in - SSE 6.9 mph - N/A   Clear